UTA4201 UNNT-UNKL

Flight info

Callsign UTA4201
Flight time 1h 8m
Altitude 31000
Route OGAT1K OGATI A308 RISPA A366 KESED A309 ROTLI A300 RANET RANE2S
Aircraft B38M/M-SBDFGM3RWXY/LB1

Departure

Time 2026-05-05 13:28
Airport Novosibirsk Tolmachevo Airport (UNNT)

Arrival

Time 2026-05-05 14:36
Airport Krasnoyarsk International Airport (UNKL)
Time Latitude Longitude Altitude Speed Heading
2026-05-05 13:11 55.00868 82.65591 359 ft 0 kts 352°
2026-05-05 13:25 55.00880 82.65587 359 ft 4 kts 352°
2026-05-05 13:25 55.00917 82.65627 359 ft 9 kts 76°
2026-05-05 13:25 55.00928 82.65775 358 ft 15 kts 82°
2026-05-05 13:25 55.00946 82.65986 358 ft 19 kts 81°
2026-05-05 13:26 55.00985 82.66214 357 ft 18 kts 68°
2026-05-05 13:26 55.01030 82.66405 357 ft 15 kts 72°
2026-05-05 13:26 55.01068 82.66584 356 ft 15 kts 67°
2026-05-05 13:26 55.01149 82.66648 354 ft 14 kts 351°
2026-05-05 13:27 55.01248 82.66622 354 ft 13 kts 352°
2026-05-05 13:27 55.01303 82.66608 354 ft 9 kts 352°
2026-05-05 13:27 55.01368 82.66555 354 ft 12 kts 299°
2026-05-05 13:27 55.01365 82.66386 354 ft 20 kts 261°
2026-05-05 13:28 55.01288 82.65558 355 ft 115 kts 261°
2026-05-05 13:28 55.01091 82.63765 454 ft 180 kts 258°
2026-05-05 13:28 55.00788 82.61716 1574 ft 179 kts 255°
2026-05-05 13:28 55.00437 82.59506 2312 ft 209 kts 254°
2026-05-05 13:29 54.99875 82.56991 2985 ft 243 kts 243°
2026-05-05 13:29 54.98860 82.54301 2552 ft 281 kts 227°
2026-05-05 13:29 54.97223 82.52608 2353 ft 272 kts 194°
2026-05-05 13:29 54.95410 82.52698 2361 ft 259 kts 160°
2026-05-05 13:30 54.93957 82.54449 2365 ft 256 kts 128°
2026-05-05 13:30 54.92989 82.57006 2369 ft 255 kts 118°
2026-05-05 13:30 54.92131 82.59716 2361 ft 254 kts 114°
2026-05-05 13:30 54.91832 82.62653 2327 ft 250 kts 79°
2026-05-05 13:31 54.92154 82.65600 2367 ft 250 kts 78°
2026-05-05 13:31 54.92318 82.68619 2352 ft 251 kts 86°
2026-05-05 13:31 54.92272 82.71695 2426 ft 257 kts 91°
2026-05-05 13:31 54.92135 82.74760 3297 ft 258 kts 92°
2026-05-05 13:32 54.92000 82.77880 4166 ft 261 kts 92°
2026-05-05 13:32 54.91874 82.81014 5010 ft 263 kts 92°
2026-05-05 13:32 54.91747 82.84187 5815 ft 266 kts 92°
2026-05-05 13:32 54.91621 82.87374 6598 ft 268 kts 92°
2026-05-05 13:33 54.91493 82.90615 7370 ft 271 kts 92°
2026-05-05 13:33 54.91367 82.93874 8123 ft 274 kts 92°
2026-05-05 13:33 54.91237 82.97074 9199 ft 262 kts 93°
2026-05-05 13:33 54.91113 83.00168 10022 ft 259 kts 93°
2026-05-05 13:34 54.90987 83.03302 10744 ft 260 kts 93°
2026-05-05 13:34 54.90863 83.06435 11426 ft 262 kts 93°
2026-05-05 13:34 54.90743 83.09548 12080 ft 264 kts 93°
2026-05-05 13:34 54.90625 83.12752 12705 ft 267 kts 93°
2026-05-05 13:35 54.90505 83.15972 13319 ft 270 kts 93°
2026-05-05 13:35 54.90385 83.19239 13918 ft 273 kts 93°
2026-05-05 13:35 54.90264 83.22538 14512 ft 276 kts 93°
2026-05-05 13:35 54.90144 83.25864 15085 ft 279 kts 93°
2026-05-05 13:36 54.90022 83.29241 15646 ft 281 kts 93°
2026-05-05 13:36 54.89900 83.32652 16200 ft 284 kts 92°
2026-05-05 13:36 54.89778 83.36054 16730 ft 287 kts 92°
2026-05-05 13:36 54.89654 83.39541 17269 ft 289 kts 92°
2026-05-05 13:37 54.89533 83.43014 17774 ft 292 kts 92°
2026-05-05 13:37 54.89411 83.46529 18279 ft 295 kts 92°
2026-05-05 13:37 54.89288 83.50086 18770 ft 297 kts 92°
2026-05-05 13:37 54.89169 83.53724 19253 ft 300 kts 92°
2026-05-05 13:38 54.89060 83.57325 19724 ft 303 kts 92°
2026-05-05 13:38 54.88948 83.60976 20185 ft 305 kts 92°
2026-05-05 13:38 54.88831 83.64648 20635 ft 308 kts 92°
2026-05-05 13:38 54.88712 83.68366 21073 ft 310 kts 92°
2026-05-05 13:39 54.88590 83.72123 21508 ft 313 kts 92°
2026-05-05 13:39 54.88469 83.75899 21924 ft 315 kts 92°
2026-05-05 13:39 54.88347 83.79704 22335 ft 317 kts 92°
2026-05-05 13:39 54.88224 83.83554 22739 ft 320 kts 92°
2026-05-05 13:40 54.88103 83.87415 23131 ft 322 kts 92°
2026-05-05 13:40 54.87981 83.91279 23522 ft 324 kts 92°
2026-05-05 13:40 54.87859 83.95199 23897 ft 326 kts 92°
2026-05-05 13:40 54.87737 83.99143 24260 ft 329 kts 92°
2026-05-05 13:41 54.87616 84.03115 24637 ft 330 kts 92°
2026-05-05 13:41 54.87495 84.07101 24987 ft 333 kts 92°
2026-05-05 13:41 54.87373 84.11119 25336 ft 335 kts 92°
2026-05-05 13:41 54.87256 84.15099 25656 ft 337 kts 92°
2026-05-05 13:42 54.87139 84.19185 25996 ft 339 kts 91°
2026-05-05 13:42 54.87022 84.23305 26309 ft 341 kts 91°
2026-05-05 13:42 54.86908 84.27407 26629 ft 343 kts 91°
2026-05-05 13:42 54.86792 84.31509 26937 ft 345 kts 91°
2026-05-05 13:43 54.86676 84.35671 27237 ft 347 kts 91°
2026-05-05 13:43 54.86559 84.39854 27551 ft 348 kts 91°
2026-05-05 13:43 54.86443 84.44060 27841 ft 350 kts 91°
2026-05-05 13:43 54.86330 84.48286 28054 ft 355 kts 91°
2026-05-05 13:44 54.86102 84.57079 28161 ft 373 kts 91°
2026-05-05 13:44 54.85870 84.66280 28265 ft 391 kts 91°
2026-05-05 13:45 54.85455 84.75824 28365 ft 408 kts 94°
2026-05-05 13:45 54.84930 84.85785 28464 ft 423 kts 94°
2026-05-05 13:46 54.84390 84.96162 28566 ft 438 kts 94°
2026-05-05 13:46 54.83818 85.06657 29514 ft 428 kts 94°
2026-05-05 13:47 54.83548 85.11674 30325 ft 415 kts 93°
2026-05-05 13:47 54.83275 85.16652 30377 ft 421 kts 94°
2026-05-05 13:47 54.83649 85.26826 30537 ft 428 kts 71°
2026-05-05 13:48 54.84732 85.31597 30788 ft 426 kts 59°
2026-05-05 13:48 54.86296 85.35947 30859 ft 426 kts 49°
2026-05-05 13:48 54.88272 85.39786 30866 ft 438 kts 43°
2026-05-05 13:48 54.90443 85.43670 30857 ft 453 kts 43°
2026-05-05 13:49 54.92661 85.47623 30858 ft 468 kts 43°
2026-05-05 13:49 54.94943 85.51704 30853 ft 481 kts 43°
2026-05-05 13:49 54.99599 85.60076 30858 ft 481 kts 43°
2026-05-05 13:50 55.04250 85.68471 30858 ft 482 kts 44°
2026-05-05 13:50 55.08870 85.76868 30858 ft 483 kts 44°
2026-05-05 13:51 55.13524 85.85351 30857 ft 483 kts 44°
2026-05-05 13:51 55.18144 85.93780 30859 ft 484 kts 44°
2026-05-05 13:52 55.22787 86.02284 30857 ft 484 kts 44°
2026-05-05 13:52 55.26836 86.11603 30863 ft 487 kts 59°
2026-05-05 13:53 55.29820 86.22282 30857 ft 487 kts 63°
2026-05-05 13:53 55.32604 86.33166 30858 ft 488 kts 64°
2026-05-05 13:54 55.35319 86.44019 30857 ft 488 kts 64°
2026-05-05 13:54 55.38016 86.54922 30857 ft 488 kts 64°
2026-05-05 13:55 55.40714 86.65945 30857 ft 488 kts 65°
2026-05-05 13:55 55.43362 86.76844 30858 ft 488 kts 65°
2026-05-05 13:56 55.46015 86.87818 30858 ft 488 kts 65°
2026-05-05 13:56 55.48653 86.98823 30855 ft 479 kts 65°
2026-05-05 13:57 55.51181 87.09445 30860 ft 473 kts 65°
2026-05-05 13:57 55.53730 87.20104 30858 ft 473 kts 64°
2026-05-05 13:58 55.56276 87.30841 30858 ft 474 kts 64°
2026-05-05 13:58 55.58811 87.41622 30857 ft 474 kts 65°
2026-05-05 13:59 55.62537 87.57760 30857 ft 475 kts 65°
2026-05-05 14:00 55.66181 87.73999 30858 ft 475 kts 66°
2026-05-05 14:00 55.68647 87.84861 30858 ft 475 kts 65°
2026-05-05 14:01 55.71098 87.95656 30858 ft 475 kts 65°
2026-05-05 14:01 55.73555 88.06496 30859 ft 475 kts 65°
2026-05-05 14:02 55.76014 88.17360 30857 ft 475 kts 65°
2026-05-05 14:02 55.78481 88.28273 30858 ft 475 kts 65°
2026-05-05 14:03 55.80923 88.39133 30858 ft 475 kts 65°
2026-05-05 14:03 55.83341 88.49957 30858 ft 475 kts 65°
2026-05-05 14:04 55.85775 88.60872 30856 ft 475 kts 65°
2026-05-05 14:04 55.88188 88.71786 30859 ft 475 kts 66°
2026-05-05 14:05 55.90609 88.82777 30857 ft 475 kts 66°
2026-05-05 14:05 55.93003 88.93678 30858 ft 473 kts 66°
2026-05-05 14:06 55.95358 89.04461 30858 ft 469 kts 65°
2026-05-05 14:06 55.97634 89.15358 30857 ft 468 kts 66°
2026-05-05 14:07 55.99869 89.26211 30857 ft 466 kts 66°
2026-05-05 14:07 56.02134 89.37057 30857 ft 466 kts 66°
2026-05-05 14:08 56.04391 89.47843 30858 ft 465 kts 66°
2026-05-05 14:08 56.06633 89.58562 30858 ft 465 kts 66°
2026-05-05 14:09 56.08890 89.69370 30858 ft 465 kts 66°
2026-05-05 14:09 56.11148 89.80189 30857 ft 465 kts 66°
2026-05-05 14:10 56.13406 89.91097 30857 ft 465 kts 66°
2026-05-05 14:10 56.15656 90.01955 30857 ft 466 kts 66°
2026-05-05 14:11 56.17863 90.12683 30858 ft 466 kts 66°
2026-05-05 14:11 56.20085 90.23548 31041 ft 462 kts 66°
2026-05-05 14:12 56.22276 90.34375 31046 ft 462 kts 66°
2026-05-05 14:12 56.24464 90.45247 31047 ft 463 kts 67°
2026-05-05 14:13 56.25876 90.56604 31051 ft 467 kts 77°
2026-05-05 14:13 56.26841 90.68080 31048 ft 468 kts 80°
2026-05-05 14:14 56.27510 90.79775 30927 ft 469 kts 82°
2026-05-05 14:14 56.27774 90.85611 30546 ft 471 kts 82°
2026-05-05 14:14 56.27996 90.91431 29656 ft 477 kts 83°
2026-05-05 14:15 56.28194 90.97363 28682 ft 472 kts 84°
2026-05-05 14:15 56.28360 91.03198 28066 ft 470 kts 84°
2026-05-05 14:15 56.28338 91.09102 27683 ft 475 kts 92°
2026-05-05 14:15 56.28009 91.15048 27421 ft 480 kts 92°
2026-05-05 14:16 56.27652 91.20976 27259 ft 469 kts 92°
2026-05-05 14:16 56.27279 91.26644 27041 ft 447 kts 93°
2026-05-05 14:16 56.26894 91.32112 26793 ft 429 kts 93°
2026-05-05 14:16 56.26521 91.37281 26555 ft 420 kts 93°
2026-05-05 14:17 56.26127 91.42522 26314 ft 419 kts 93°
2026-05-05 14:17 56.25736 91.47656 26070 ft 420 kts 93°
2026-05-05 14:17 56.25333 91.52838 25820 ft 419 kts 94°
2026-05-05 14:17 56.24907 91.58060 25567 ft 417 kts 91°
2026-05-05 14:18 56.24729 91.63182 25316 ft 412 kts 86°
2026-05-05 14:18 56.24736 91.68307 25065 ft 410 kts 85°
2026-05-05 14:18 56.24862 91.73386 24814 ft 408 kts 82°
2026-05-05 14:18 56.25141 91.78383 24569 ft 405 kts 79°
2026-05-05 14:19 56.25601 91.83336 24317 ft 401 kts 75°
2026-05-05 14:19 56.26162 91.88293 24065 ft 400 kts 75°
2026-05-05 14:19 56.26721 91.93150 23815 ft 399 kts 75°
2026-05-05 14:19 56.27274 91.97974 23568 ft 397 kts 75°
2026-05-05 14:20 56.27831 92.02874 23314 ft 395 kts 75°
2026-05-05 14:20 56.28368 92.07644 23065 ft 394 kts 76°
2026-05-05 14:20 56.28674 92.12538 22816 ft 395 kts 82°
2026-05-05 14:20 56.28825 92.17514 22563 ft 395 kts 85°
2026-05-05 14:21 56.28534 92.22385 22305 ft 398 kts 101°
2026-05-05 14:21 56.27569 92.26775 22073 ft 402 kts 116°
2026-05-05 14:21 56.25843 92.30881 21818 ft 406 kts 132°
2026-05-05 14:21 56.23574 92.33974 21571 ft 410 kts 147°
2026-05-05 14:22 56.21043 92.36295 21333 ft 410 kts 152°
2026-05-05 14:22 56.18501 92.38401 21085 ft 408 kts 152°
2026-05-05 14:22 56.15940 92.40492 20835 ft 406 kts 152°
2026-05-05 14:22 56.13376 92.42580 20583 ft 404 kts 152°
2026-05-05 14:23 56.10848 92.44640 20335 ft 402 kts 152°
2026-05-05 14:23 56.08353 92.46676 20089 ft 401 kts 152°
2026-05-05 14:23 56.05826 92.48740 19838 ft 399 kts 152°
2026-05-05 14:23 56.03321 92.50790 19589 ft 397 kts 152°
2026-05-05 14:24 56.00847 92.52815 19349 ft 389 kts 152°
2026-05-05 14:24 55.98427 92.54796 19111 ft 383 kts 152°
2026-05-05 14:24 55.95990 92.56799 18896 ft 392 kts 152°
2026-05-05 14:24 55.93568 92.59008 18636 ft 380 kts 140°
2026-05-05 14:25 55.91865 92.62372 18322 ft 374 kts 117°
2026-05-05 14:25 55.90640 92.66389 17898 ft 375 kts 113°
2026-05-05 14:25 55.89550 92.70344 17429 ft 367 kts 112°
2026-05-05 14:25 55.88502 92.74204 16968 ft 363 kts 112°
2026-05-05 14:26 55.87399 92.78294 16612 ft 366 kts 112°
2026-05-05 14:26 55.86317 92.82320 16303 ft 355 kts 112°
2026-05-05 14:26 55.85250 92.86303 16027 ft 362 kts 112°
2026-05-05 14:26 55.84163 92.90400 15441 ft 366 kts 112°
2026-05-05 14:27 55.83101 92.94387 14642 ft 356 kts 112°
2026-05-05 14:27 55.82309 92.98441 13843 ft 347 kts 94°
2026-05-05 14:27 55.82575 93.02576 13047 ft 337 kts 64°
2026-05-05 14:27 55.83972 93.05795 12238 ft 324 kts 33°
2026-05-05 14:28 55.86000 93.07101 11444 ft 313 kts
2026-05-05 14:28 55.88047 93.06224 10649 ft 308 kts 328°
2026-05-05 14:28 55.89474 93.03502 9864 ft 305 kts 300°
2026-05-05 14:28 55.90357 93.00037 9082 ft 313 kts 292°
2026-05-05 14:29 55.91150 92.96423 8276 ft 316 kts 291°
2026-05-05 14:29 55.91941 92.92825 7472 ft 313 kts 291°
2026-05-05 14:29 55.92758 92.89262 6658 ft 315 kts 296°
2026-05-05 14:29 55.94117 92.86148 5847 ft 323 kts 321°
2026-05-05 14:30 55.96070 92.84336 5048 ft 317 kts 346°
2026-05-05 14:30 55.98215 92.84178 4268 ft 312 kts 11°
2026-05-05 14:30 56.00263 92.85278 4011 ft 307 kts 20°
2026-05-05 14:30 56.02235 92.86638 3976 ft 294 kts 21°
2026-05-05 14:31 56.04036 92.87912 3978 ft 264 kts 21°
2026-05-05 14:31 56.05659 92.89054 3990 ft 239 kts 20°
2026-05-05 14:31 56.07216 92.89417 3978 ft 222 kts 342°
2026-05-05 14:31 56.08392 92.87819 4000 ft 218 kts 296°
2026-05-05 14:32 56.08893 92.85345 4027 ft 200 kts 282°
2026-05-05 14:32 56.09246 92.83070 3975 ft 180 kts 284°
2026-05-05 14:32 56.09640 92.80975 4008 ft 184 kts 287°
2026-05-05 14:32 56.10113 92.78742 3992 ft 194 kts 289°
2026-05-05 14:33 56.10642 92.76481 3844 ft 198 kts 290°
2026-05-05 14:33 56.11183 92.74274 3606 ft 193 kts 291°
2026-05-05 14:33 56.11695 92.72205 3369 ft 190 kts 291°
2026-05-05 14:33 56.12235 92.70005 3116 ft 191 kts 291°
2026-05-05 14:34 56.12766 92.67834 2853 ft 190 kts 291°
2026-05-05 14:34 56.13288 92.65698 2597 ft 189 kts 291°
2026-05-05 14:34 56.13815 92.63539 2339 ft 187 kts 291°
2026-05-05 14:34 56.14334 92.61410 2090 ft 186 kts 291°
2026-05-05 14:35 56.14850 92.59293 1838 ft 185 kts 291°
2026-05-05 14:35 56.15362 92.57193 1593 ft 176 kts 291°
2026-05-05 14:35 56.15814 92.55357 1361 ft 148 kts 290°
2026-05-05 14:35 56.16210 92.53730 1164 ft 139 kts 291°
2026-05-05 14:36 56.16602 92.52168 966 ft 132 kts 289°
2026-05-05 14:36 56.16923 92.50868 930 ft 85 kts 319°
2026-05-05 14:36 56.17210 92.50388 926 ft 38 kts 298°